This is the latest recevied weather packets stored in our database for station/object W6MAF. If no packets are shown the sender has not sent any weather packets the latest 10 day(s).
| Time | Temp. | Humidity | Pressure | Rain* | Wind** | Luminosity | Snow |
|---|---|---|---|---|---|---|---|
| 1788343400 | 13.89° C | 17% | - | 0 mm | 0.45 m/s, 253° | - | - |
| 1788343103 | 13.89° C | 16% | - | 0 mm | 0 m/s | - | - |
| 1788342803 | 14.44° C | 16% | - | 0 mm | 0 m/s | - | - |
| 1788342506 | 14.44° C | 15% | - | 0 mm | 0.45 m/s, 186° | - | - |
| 1788342205 | 14.44° C | 15% | - | 0 mm | 0 m/s | - | - |
| 1788341907 | 14.44° C | 15% | - | 0 mm | 0 m/s | - | - |
| 1788341609 | 14.44° C | 14% | - | 0 mm | 0.45 m/s, 180° | - | - |
| 1788341311 | 15° C | 13% | - | 0 mm | 0.45 m/s, 193° | - | - |
| 1788341014 | 15° C | 12% | - | 0 mm | 0 m/s | - | - |
| 1788340716 | 15° C | 12% | - | 0 mm | 0.45 m/s, 238° | - | - |
| 1788340415 | 15.56° C | 11% | - | 0 mm | 0 m/s | - | - |
| 1788340118 | 15.56° C | 12% | - | 0 mm | 0.89 m/s, 153° | - | - |
| 1788339819 | 15.56° C | 11% | - | 0 mm | 1.34 m/s, 167° | - | - |
| 1788339521 | 16.11° C | 12% | - | 0 mm | 0.89 m/s, 174° | - | - |
| 1788339223 | 16.11° C | 13% | - | 0 mm | 1.79 m/s, 180° | - | - |
| 1788338926 | 16.11° C | 14% | - | 0 mm | 6.26 m/s, 183° | - | - |
| 1788338625 | 16.11° C | 13% | - | 0 mm | 7.6 m/s, 194° | - | - |
| 1788338327 | 16.11° C | 13% | - | 0 mm | 7.15 m/s, 167° | - | - |
| 1788338030 | 16.11° C | 13% | - | 0 mm | 6.26 m/s, 166° | - | - |
| 1788337732 | 16.11° C | 13% | - | 0 mm | 6.71 m/s, 184° | - | - |
| 1788337434 | 16.11° C | 13% | - | 0 mm | 7.6 m/s, 180° | - | - |
| 1788337136 | 16.11° C | 13% | - | 0 mm | 4.92 m/s, 187° | - | - |
| 1788336835 | 16.11° C | 12% | - | 0 mm | 1.34 m/s, 183° | - | - |
| 1788336537 | 16.11° C | 12% | - | 0 mm | 0.45 m/s, 177° | - | - |
| 1788336240 | 16.11° C | 12% | - | 0 mm | 1.34 m/s, 176° | - | - |
* Rain latest hour (hover to see other rain measurements)
** Current wind speed in m/s (hover to see current wind gust speed)